Location: Pcim
(49.7500°N, 19.9670°E)
Time: 09:00:32
(UTC+02:00)

EO-79 - Pass Details

Date: 28 April 2024
Orbit: 563 x 574 km, 98.0° (Epoch: 20 May)

Event Time Altitude Azimuth Distance (km) Brightness Sun altitude
Rises 03:13:09 0° 22° (NNE) 2,803 ? -17.4°
Reaches altitude 10° 03:15:31 10° 33° (NNE) 1,900 ? -17.2°
Maximum altitude 03:19:11 31° 96° (E) 1,037 ? -16.8°
Drops below altitude 10° 03:22:50 10° 159° (SSE) 1,887 ? -16.4°
Enters shadow 03:22:59 - 160° (SSE) 1,943 ? -16.4°
